Terug naar catalogus

BB3

ActiefCommunicatiePO
NORAD 57760·PAYLOAD·🇺🇸 United States

Gelanceerd Sep 2, 2023 vanaf Vandenberg Space Force Base

Loading…

Volgende Passages (komende 24 uur)

TLE

VersSource: Space-Track

Epoch: Sep 14, 2026, 10:41 UTC

1 57760U 23133D   26257.44519058  .00000583  00000-0  63768-4 0  9995
2 57760  80.9938 250.5524 0009128  48.9945 311.2054 14.86534326155230

Volg BB3 in realtime met AllMySat

Download on the App Store